Regional Weather Roundup
Issued by NWS Goodland, KS

Home | Current Version | Previous Version | Graphics & Text | Print | Product List | Glossary On
Versions: 1 2 3 4 5 6 7 8 9 10 11 12 13 14 15 16 17 18 19 20 21 22 23 24 25 26 27 28 29 30 31 32 33 34 35 36 37 38 39 40 41 42 43 44 45 46 47 48 49 50
000
ASUS43 KGLD 290708
RWRGLD

GOODLAND FORECAST AREA HOURLY WEATHER ROUNDUP
NATIONAL WEATHER SERVICE GOODLAND KS
1200 AM MST THU JAN 29 2015

...OFFICIAL OBSERVATIONS...

CITY           SKY/WX    TMP DP  RH WIND       PRES   REMARKS
GOODLAND KS    CLEAR     39  33  79 N14       30.26R
HILL CITY KS   CLEAR     47  32  56 NW21G29   30.18R
IMPERIAL NEB   CLEAR     37  28  70 N20       30.27R
MCCOOK NEB     CLEAR     41  32  70 N21G28    30.23R
AKRON CO       CLOUDY    38  29  70 N17       30.29R
BURLINGTON CO  CLEAR     39  31  72 N21G30    30.25S
LIMON CO       CLEAR     32  28  85 NW9       30.32R
$$

...UNOFFICIAL OBSERVATIONS...

CITY           SKY/WX    TMP DP  RH WIND       PRES   REMARKS
COLBY KS       CLEAR     41  37  87 NW16      30.24R
GOVE KS          N/A     45  32  60 MISG        N/A
NORTON KS      CLEAR     39  28  65 NW30G36   30.20R
SHARON SPRINGS   N/A     39  34  82 N13         N/A
KIT CARSON CO    N/A     39  31  75 MISG        N/A
YUMA CO          N/A     37  29  74 N16         N/A
$$



USA.gov is the U.S. government's official web portal to all federal, state and local government web resources and services.